TimeEST,TemperatureF,Dew PointF,Humidity,Sea Level PressureIn,VisibilityMPH,Wind Direction,Wind SpeedMPH,Gust SpeedMPH,PrecipitationIn,Events,Conditions,WindDirDegrees,DateUTC
12:15 AM,44.6,32.0,61,29.97,10.0,WNW,3.5,-,N/A,,Overcast,290,2013-02-16 05:15:00
12:35 AM,44.6,32.0,61,29.97,10.0,Calm,Calm,-,N/A,,Overcast,0,2013-02-16 05:35:00
12:55 AM,44.6,32.0,61,29.97,10.0,NNW,4.6,-,N/A,,Overcast,330,2013-02-16 05:55:00
1:15 AM,42.8,32.0,66,29.97,10.0,Calm,Calm,-,N/A,,Mostly Cloudy,0,2013-02-16 06:15:00
1:35 AM,41.0,30.2,65,29.96,10.0,Calm,Calm,-,N/A,,Scattered Clouds,0,2013-02-16 06:35:00
1:55 AM,41.0,28.4,61,29.96,10.0,Calm,Calm,-,N/A,,Clear,0,2013-02-16 06:55:00
2:15 AM,41.0,28.4,61,29.95,10.0,Calm,Calm,-,N/A,,Clear,0,2013-02-16 07:15:00
2:35 AM,39.2,28.4,65,29.95,10.0,NNW,4.6,-,N/A,,Scattered Clouds,330,2013-02-16 07:35:00
2:55 AM,39.2,28.4,65,29.95,10.0,NNW,3.5,-,N/A,,Mostly Cloudy,330,2013-02-16 07:55:00
3:15 AM,39.2,28.4,65,29.95,10.0,NW,3.5,-,N/A,,Overcast,320,2013-02-16 08:15:00
3:35 AM,39.2,28.4,65,29.94,10.0,Calm,Calm,-,N/A,,Overcast,0,2013-02-16 08:35:00
3:55 AM,39.2,26.6,61,29.94,10.0,NW,3.5,-,N/A,,Overcast,320,2013-02-16 08:55:00
4:15 AM,37.4,26.6,65,29.94,10.0,Calm,Calm,-,N/A,,Overcast,0,2013-02-16 09:15:00
4:35 AM,37.4,26.6,65,29.94,10.0,Calm,Calm,-,N/A,,Overcast,0,2013-02-16 09:35:00
4:55 AM,37.4,26.6,65,29.94,10.0,NNW,3.5,-,N/A,,Overcast,330,2013-02-16 09:55:00
5:15 AM,39.2,26.6,61,29.95,10.0,North,3.5,-,N/A,,Overcast,350,2013-02-16 10:15:00
5:35 AM,37.4,26.6,65,29.95,10.0,NE,4.6,-,N/A,,Overcast,40,2013-02-16 10:35:00
5:55 AM,37.4,28.4,70,29.95,10.0,NE,5.8,-,N/A,,Overcast,40,2013-02-16 10:55:00
6:15 AM,37.4,28.4,70,29.95,10.0,NNE,4.6,-,N/A,,Light Drizzle,20,2013-02-16 11:15:00
6:35 AM,37.4,28.4,70,29.95,10.0,Calm,Calm,-,N/A,Rain,Light Rain,0,2013-02-16 11:35:00
6:55 AM,37.4,28.4,70,29.95,10.0,Calm,Calm,-,N/A,,Overcast,0,2013-02-16 11:55:00
7:15 AM,35.6,30.2,81,29.96,10.0,NNE,6.9,-,N/A,Rain,Light Rain,20,2013-02-16 12:15:00
7:35 AM,35.6,30.2,81,29.95,10.0,Calm,Calm,-,N/A,,Overcast,0,2013-02-16 12:35:00
7:55 AM,35.6,30.2,81,29.95,10.0,Calm,Calm,-,N/A,,Overcast,0,2013-02-16 12:55:00
8:15 AM,37.4,30.2,75,29.95,10.0,Calm,Calm,-,N/A,,Overcast,0,2013-02-16 13:15:00
8:35 AM,37.4,30.2,75,29.94,10.0,Calm,Calm,-,N/A,,Overcast,0,2013-02-16 13:35:00
8:55 AM,37.4,28.4,70,29.94,10.0,West,4.6,-,N/A,,Overcast,280,2013-02-16 13:55:00
9:15 AM,37.4,30.2,75,29.94,10.0,Calm,Calm,-,N/A,,Overcast,0,2013-02-16 14:15:00
9:35 AM,37.4,32.0,81,29.94,10.0,Calm,Calm,-,N/A,,Overcast,0,2013-02-16 14:35:00
9:55 AM,35.6,32.0,87,29.94,10.0,SW,3.5,-,N/A,,Overcast,230,2013-02-16 14:55:00
10:15 AM,35.6,32.0,87,29.94,10.0,West,3.5,-,N/A,,Drizzle,270,2013-02-16 15:15:00
10:35 AM,35.6,30.2,81,29.93,10.0,Calm,Calm,-,N/A,,Overcast,0,2013-02-16 15:35:00
1:15 PM,37.4,26.6,65,29.87,10.0,Calm,Calm,-,N/A,,Overcast,0,2013-02-16 18:15:00
1:35 PM,37.4,26.6,65,29.85,10.0,Calm,Calm,-,N/A,Rain,Light Rain,0,2013-02-16 18:35:00
1:55 PM,39.2,26.6,61,29.85,10.0,Calm,Calm,-,N/A,,Overcast,0,2013-02-16 18:55:00
2:15 PM,39.2,28.4,65,29.84,10.0,NE,4.6,-,N/A,,Overcast,40,2013-02-16 19:15:00
2:35 PM,37.4,28.4,70,29.83,10.0,NNW,3.5,-,N/A,,Overcast,330,2013-02-16 19:35:00
2:55 PM,37.4,28.4,70,29.82,10.0,WNW,5.8,-,N/A,Rain,Rain,300,2013-02-16 19:55:00
3:15 PM,32.0,32.0,100,29.84,0.5,NW,6.9,-,0.02,Snow,Snow,320,2013-02-16 20:15:00
3:35 PM,32.0,32.0,100,29.85,1.0,WNW,3.5,-,0.02,Snow,Light Snow,300,2013-02-16 20:35:00
3:55 PM,32.0,32.0,100,29.84,1.5,NNE,5.8,-,0.03,Snow,Light Snow,30,2013-02-16 20:55:00
4:15 PM,32.0,32.0,100,29.85,3.0,Calm,Calm,-,N/A,Snow,Light Snow,0,2013-02-16 21:15:00
4:35 PM,32.0,32.0,100,29.86,10.0,NNW,3.5,-,N/A,Snow,Light Snow,330,2013-02-16 21:35:00
4:55 PM,32.0,32.0,100,29.87,1.2,NNW,3.5,-,N/A,Snow,Light Snow,330,2013-02-16 21:55:00
5:15 PM,32.0,32.0,100,29.87,0.8,Calm,Calm,-,N/A,Snow,Light Snow,0,2013-02-16 22:15:00
5:35 PM,32.0,32.0,100,29.88,10.0,West,3.5,-,N/A,Snow,Light Snow,270,2013-02-16 22:35:00
5:55 PM,32.0,32.0,100,29.88,3.0,Calm,Calm,-,N/A,Snow,Light Snow,0,2013-02-16 22:55:00
6:15 PM,32.0,32.0,100,29.89,10.0,North,5.8,-,N/A,,Overcast,360,2013-02-16 23:15:00
6:35 PM,32.0,30.2,93,29.90,10.0,NNW,4.6,-,N/A,,Overcast,330,2013-02-16 23:35:00
6:55 PM,32.0,30.2,93,29.91,10.0,Calm,Calm,-,N/A,,Overcast,0,2013-02-16 23:55:00
7:15 PM,32.0,28.4,87,29.91,10.0,Calm,Calm,-,N/A,,Overcast,0,2013-02-17 00:15:00
7:35 PM,32.0,28.4,87,29.92,10.0,Calm,Calm,-,N/A,,Overcast,0,2013-02-17 00:35:00
7:55 PM,32.0,30.2,93,29.93,10.0,Calm,Calm,-,N/A,,Overcast,0,2013-02-17 00:55:00
8:15 PM,32.0,30.2,93,29.94,10.0,Calm,Calm,-,N/A,,Mostly Cloudy,0,2013-02-17 01:15:00
8:35 PM,30.2,28.4,93,29.94,10.0,Calm,Calm,-,N/A,,Mostly Cloudy,0,2013-02-17 01:35:00
8:55 PM,30.2,26.6,86,29.95,10.0,Calm,Calm,-,N/A,,Overcast,0,2013-02-17 01:55:00
9:15 PM,30.2,23.0,75,29.95,10.0,West,3.5,-,N/A,,Mostly Cloudy,280,2013-02-17 02:15:00
9:35 PM,28.4,23.0,80,29.96,10.0,WNW,3.5,-,N/A,,Scattered Clouds,290,2013-02-17 02:35:00
9:55 PM,28.4,21.2,74,29.97,10.0,WNW,3.5,-,N/A,,Clear,290,2013-02-17 02:55:00
10:15 PM,28.4,19.4,69,29.98,10.0,WNW,4.6,-,N/A,,Clear,290,2013-02-17 03:15:00
10:35 PM,28.4,19.4,69,29.98,10.0,Calm,Calm,-,N/A,,Clear,0,2013-02-17 03:35:00
10:55 PM,28.4,21.2,74,29.98,10.0,Calm,Calm,-,N/A,,Clear,0,2013-02-17 03:55:00
11:15 PM,28.4,21.2,74,29.98,10.0,West,3.5,-,N/A,,Mostly Cloudy,270,2013-02-17 04:15:00
11:35 PM,28.4,19.4,69,29.98,10.0,West,5.8,-,N/A,,Overcast,270,2013-02-17 04:35:00
11:55 PM,28.4,19.4,69,29.99,10.0,WNW,3.5,-,N/A,,Mostly Cloudy,290,2013-02-17 04:55:00